QPF
0.00 0.00 0.00 0.00 0.00 0.00 0.00 0.00 0.00 0.00 0.00 0.00 0.00 0.00 0.00 0.00 0.00 0.00 0.00 0.00 0.00 0.00 0.00 0.00 0.00 0.00 0.00 0.00 0.00 0.00 0.00 0.00 0.01 0.00 0.00 0.00 0.00 0.00 0.00 0.00 0.00 0.00 0.00 0.00
0.00 0.00 0.00 0.00 0.00 0.00 0.00 0.00 0.00 0.00 0.00 0.00 0.00 0.00 0.00 0.00 0.00 0.00 0.00 0.00 0.00 0.00 0.00 0.00 0.00 0.00 0.00 0.00 0.00 0.00 0.00 0.00 0.00 0.00 0.00 0.00 0.00 0.00 0.00 0.00 0.00 0.00 0.00 0.00
0.00 0.00 0.00 0.00 0.00 0.00 0.00 0.00 0.00 0.00 0.00 0.00 0.00 0.00 0.00 0.01 0.01 0.01 0.01 0.01 0.01 0.01 0.01 0.00 0.00 0.00 0.00 0.01 0.01 0.01 0.01 0.00 0.00 0.00 0.00 0.00 0.00 0.00 0.00 0.00 0.00 0.00 0.00 0.00
0.00 0.00 0.00 0.00 0.00 0.00 0.00 0.00 0.00 0.00 0.00 0.00 0.00 0.01 0.01 0.01 0.01 0.01 0.01 0.01 0.01 0.01 0.01 0.01 0.02 0.02 0.02 0.02 0.02 0.01 0.01 0.02 0.02 0.01 0.01 0.01 0.01 0.00 0.00 0.00 0.00 0.00 0.00 0.00
0.00 0.00 0.00 0.00 0.00 0.00 0.00 0.00 0.00 0.00 0.00 0.00 0.01 0.01 0.01 0.01 0.02 0.02 0.01 0.01 0.01 0.01 0.01 0.02 0.03 0.03 0.03 0.02 0.02 0.02 0.02 0.02 0.03 0.03 0.02 0.01 0.01 0.01 0.01 0.01 0.01 0.01 0.01 0.01
0.01 0.01 0.00 0.00 0.00 0.00 0.00 0.01 0.00 0.00 0.00 0.00 0.01 0.01 0.02 0.01 0.02 0.01 0.01 0.01 0.01 0.01 0.01 0.01 0.01 0.02 0.02 0.02 0.02 0.02 0.02 0.02 0.03 0.02 0.02 0.02 0.02 0.02 0.01 0.01 0.02 0.02 0.01 0.02
0.01 0.01 0.00 0.00 0.00 0.00 0.01 0.01 0.00 0.00 0.00 0.01 0.01 0.01 0.01 0.01 0.01 0.01 0.01 0.01 0.01 0.01 0.01 0.01 0.01 0.01 0.01 0.01 0.01 0.01 0.01 0.01 0.01 0.02 0.02 0.02 0.02 0.02 0.02 0.02 0.02 0.02 0.02 0.02
0.01 0.01 0.00 0.00 0.00 0.00 0.01 0.00 0.00 0.00 0.00 0.01 0.01 0.01 0.01 0.00 0.01 0.01 0.01 0.01 0.01 0.01 0.01 0.01 0.01 0.01 0.01 0.01 0.01 0.01 0.01 0.01 0.01 0.01 0.01 0.02 0.02 0.02 0.02 0.02 0.02 0.02 0.02 0.02
0.00 0.01 0.00 0.00 0.00 0.00 0.00 0.00 0.00 0.00 0.00 0.01 0.01 0.01 0.01 0.01 0.01 0.01 0.01 0.01 0.01 0.01 0.01 0.01 0.01 0.01 0.01 0.01 0.01 0.01 0.01 0.00 0.00 0.00 0.00 0.01 0.01 0.01 0.01 0.00 0.00 0.01 0.01 0.01
0.00 0.00 0.00 0.00 0.00 0.00 0.00 0.00 0.01 0.01 0.01 0.02 0.03 0.03 0.03 0.03 0.03 0.03 0.02 0.02 0.02 0.01 0.01 0.01 0.01 0.01 0.01 0.01 0.01 0.01 0.01 0.00 0.00 0.00 0.00 0.01 0.01 0.01 0.01 0.01 0.01 0.00 0.00 0.00
0.00 0.00 0.00 0.00 0.00 0.00 0.01 0.01 0.01 0.02 0.03 0.03 0.04 0.04 0.03 0.03 0.02 0.02 0.01 0.02 0.01 0.01 0.00 0.00 0.00 0.00 0.00 0.00 0.00 0.00 0.00 0.00 0.00 0.00 0.00 0.00 0.00 0.00 0.00 0.00 0.00 0.00 0.00 0.00
0.01 0.00 0.00 0.00 0.01 0.01 0.02 0.03 0.04 0.05 0.06 0.06 0.06 0.05 0.03 0.02 0.01 0.00 0.00 0.00 0.00 0.00 0.00 0.00 0.00 0.00 0.00 0.00 0.00 0.00 0.00 0.00 0.00 0.00 0.00 0.00 0.00 0.00 0.00 0.00 0.00 0.00 0.00 0.00
0.00 0.00 0.00 0.01 0.02 0.03 0.05 0.07 0.08 0.11 0.10 0.08 0.06 0.05 0.03 0.02 0.01 0.01 0.00 0.00 0.00 0.00 0.00 0.00 0.00 0.00 0.00 0.00 0.00 0.00 0.00 0.00 0.00 0.00 0.00 0.00 0.00 0.00 0.00 0.00 0.00 0.00 0.00 0.00
0.00 0.01 0.01 0.01 0.02 0.03 0.06 0.08 0.08 0.09 0.10 0.08 0.05 0.04 0.03 0.02 0.01 0.00 0.00 0.00 0.00 0.00 0.00 0.00 0.00 0.00 0.00 0.00 0.00 0.00 0.00 0.00 0.00 0.00 0.00 0.00 0.00 0.00 0.00 0.00 0.00 0.00 0.00 0.00
0.01 0.01 0.01 0.02 0.02 0.03 0.04 0.05 0.06 0.06 0.05 0.03 0.02 0.01 0.01 0.01 0.01 0.00 0.00 0.00 0.00 0.00 0.00 0.00 0.00 0.00 0.00 0.00 0.00 0.00 0.00 0.00 0.00 0.00 0.00 0.00 0.00 0.00 0.00 0.00 0.00 0.00 0.00 0.00
0.01 0.02 0.01 0.02 0.02 0.03 0.02 0.02 0.02 0.02 0.01 0.01 0.01 0.01 0.01 0.00 0.00 0.00 0.00 0.00 0.00 0.00 0.00 0.00 0.00 0.00 0.00 0.00 0.00 0.00 0.00 0.00 0.00 0.00 0.00 0.00 0.00 0.00 0.00 0.00 0.00 0.01 0.01 0.01
0.02 0.02 0.02 0.02 0.02 0.02 0.02 0.02 0.02 0.02 0.02 0.02 0.02 0.01 0.00 0.00 0.00 0.00 0.00 0.00 0.00 0.00 0.00 0.00 0.00 0.00 0.00 0.00 0.00 0.00 0.00 0.00 0.00 0.00 0.00 0.00 0.00 0.00 0.00 0.00 0.01 0.01 0.01 0.01
0.02 0.02 0.01 0.01 0.01 0.01 0.02 0.02 0.03 0.03 0.03 0.02 0.02 0.01 0.01 0.00 0.00 0.00 0.00 0.00 0.00 0.00 0.00 0.00 0.00 0.00 0.00 0.00 0.00 0.00 0.00 0.00 0.00 0.00 0.00 0.00 0.00 0.00 0.01 0.01 0.02 0.02 0.02 0.01
0.01 0.01 0.01 0.01 0.01 0.01 0.01 0.01 0.01 0.02 0.02 0.01 0.01 0.00 0.00 0.00 0.00 0.00 0.00 0.00 0.00 0.00 0.00 0.00 0.00 0.00 0.00 0.00 0.00 0.00 0.00 0.00 0.00 0.00 0.00 0.00 0.00 0.01 0.01 0.02 0.02 0.02 0.02 0.02
0.01 0.01 0.01 0.01 0.01 0.01 0.01 0.01 0.01 0.01 0.00 0.00 0.00 0.00 0.00 0.00 0.00 0.00 0.00 0.00 0.00 0.00 0.00 0.00 0.00 0.00 0.00 0.00 0.00 0.00 0.00 0.00 0.00 0.00 0.00 0.01 0.01 0.01 0.01 0.02 0.02 0.02 0.02 0.02
0.02 0.02 0.02 0.02 0.01 0.01 0.01 0.00 0.00 0.00 0.00 0.00 0.00 0.00 0.00 0.00 0.00 0.00 0.00 0.00 0.00 0.00 0.00 0.00 0.00 0.00 0.00 0.00 0.00 0.00 0.00 0.00 0.00 0.00 0.00 0.01 0.01 0.01 0.01 0.01 0.02 0.02 0.02 0.02
0.01 0.01 0.01 0.00 0.00 0.00 0.00 0.00 0.00 0.00 0.00 0.00 0.00 0.00 0.00 0.00 0.00 0.00 0.00 0.00 0.00 0.00 0.00 0.00 0.00 0.00 0.00 0.00 0.00 0.00 0.00 0.00 0.00 0.00 0.00 0.01 0.01 0.01 0.01 0.01 0.02 0.01 0.02 0.02
0.00 0.00 0.00 0.00 0.00 0.00 0.00 0.00 0.00 0.00 0.00 0.00 0.00 0.00 0.00 0.00 0.00 0.00 0.01 0.00 0.00 0.00 0.00 0.00 0.00 0.00 0.00 0.00 0.00 0.00 0.00 0.00 0.00 0.00 0.01 0.01 0.01 0.01 0.01 0.01 0.01 0.02 0.02 0.03
0.00 0.00 0.00 0.00 0.00 0.00 0.00 0.00 0.00 0.00 0.00 0.00 0.00 0.00 0.00 0.01 0.01 0.01 0.00 0.00 0.00 0.00 0.00 0.00 0.00 0.00 0.00 0.00 0.00 0.00 0.00 0.00 0.00 0.00 0.00 0.01 0.01 0.01 0.01 0.01 0.01 0.02 0.03 0.04
0.00 0.00 0.00 0.00 0.00 0.00 0.00 0.00 0.00 0.00 0.00 0.00 0.00 0.00 0.00 0.01 0.01 0.01 0.00 0.00 0.01 0.01 0.01 0.00 0.00 0.00 0.00 0.00 0.00 0.00 0.00 0.00 0.00 0.00 0.00 0.01 0.01 0.01 0.01 0.01 0.02 0.02 0.03 0.03
0.00 0.00 0.00 0.00 0.00 0.00 0.01 0.01 0.01 0.01 0.01 0.01 0.01 0.01 0.01 0.01 0.01 0.01 0.01 0.01 0.01 0.01 0.01 0.01 0.01 0.00 0.00 0.00 0.00 0.00 0.00 0.00 0.00 0.00 0.01 0.01 0.01 0.01 0.01 0.02 0.02 0.03 0.03 0.03
0.00 0.00 0.00 0.01 0.01 0.01 0.01 0.01 0.02 0.02 0.02 0.02 0.02 0.02 0.02 0.02 0.02 0.01 0.01 0.01 0.01 0.01 0.01 0.01 0.00 0.00 0.00 0.00 0.00 0.00 0.00 0.00 0.01 0.01 0.01 0.01 0.01 0.01 0.02 0.02 0.02 0.03 0.03 0.04
MSLP
1009.13 1009.37 1009.56 1009.71 1009.84 1009.93 1010.01 1010.06 1010.08 1010.07 1010.03 1009.96 1009.87 1009.76 1009.65 1009.55 1009.48 1009.45 1009.46 1009.53 1009.65 1009.81 1010.03 1010.27 1010.55 1010.85 1011.15 1011.46 1011.76 1012.05 1012.33 1012.60 1012.86 1013.13 1013.41 1013.71 1014.04 1014.38 1014.75 1015.12 1015.48 1015.83 1016.13 1016.40
1009.05 1009.22 1009.32 1009.38 1009.40 1009.42 1009.45 1009.50 1009.57 1009.66 1009.76 1009.86 1009.95 1010.02 1010.05 1010.07 1010.07 1010.06 1010.06 1010.08 1010.13 1010.21 1010.34 1010.52 1010.73 1010.97 1011.22 1011.48 1011.74 1011.99 1012.22 1012.45 1012.68 1012.91 1013.16 1013.43 1013.73 1014.05 1014.38 1014.71 1015.04 1015.34 1015.60 1015.83
1009.08 1009.17 1009.19 1009.15 1009.08 1009.03 1009.03 1009.09 1009.21 1009.40 1009.64 1009.91 1010.17 1010.41 1010.61 1010.75 1010.84 1010.88 1010.89 1010.88 1010.88 1010.91 1010.96 1011.06 1011.20 1011.37 1011.57 1011.78 1011.99 1012.19 1012.39 1012.58 1012.76 1012.95 1013.16 1013.38 1013.62 1013.88 1014.15 1014.42 1014.67 1014.91 1015.11 1015.28
1009.21 1009.21 1009.13 1009.00 1008.87 1008.76 1008.73 1008.80 1008.97 1009.25 1009.62 1010.04 1010.47 1010.87 1011.23 1011.50 1011.69 1011.80 1011.84 1011.83 1011.81 1011.79 1011.79 1011.82 1011.90 1012.01 1012.15 1012.31 1012.48 1012.65 1012.81 1012.96 1013.10 1013.24 1013.39 1013.55 1013.72 1013.90 1014.08 1014.26 1014.43 1014.58 1014.71 1014.81
1009.36 1009.27 1009.10 1008.88 1008.68 1008.53 1008.48 1008.57 1008.79 1009.15 1009.62 1010.17 1010.74 1011.29 1011.78 1012.19 1012.48 1012.67 1012.76 1012.79 1012.76 1012.72 1012.69 1012.69 1012.72 1012.79 1012.89 1013.02 1013.15 1013.29 1013.42 1013.54 1013.64 1013.74 1013.83 1013.92 1014.00 1014.09 1014.18 1014.26 1014.33 1014.39 1014.43 1014.47
1009.45 1009.26 1009.00 1008.71 1008.46 1008.28 1008.23 1008.33 1008.59 1009.02 1009.57 1010.22 1010.90 1011.58 1012.19 1012.70 1013.10 1013.38 1013.54 1013.61 1013.62 1013.59 1013.56 1013.55 1013.56 1013.61 1013.69 1013.79 1013.91 1014.03 1014.14 1014.23 1014.31 1014.36 1014.40 1014.42 1014.42 1014.42 1014.40 1014.38 1014.36 1014.33 1014.31 1014.28
1009.41 1009.11 1008.77 1008.44 1008.15 1007.96 1007.91 1008.04 1008.34 1008.82 1009.44 1010.16 1010.93 1011.69 1012.39 1013.00 1013.49 1013.86 1014.10 1014.23 1014.29 1014.31 1014.30 1014.30 1014.32 1014.37 1014.45 1014.55 1014.66 1014.77 1014.87 1014.95 1015.00 1015.02 1015.00 1014.96 1014.90 1014.81 1014.71 1014.61 1014.51 1014.41 1014.32 1014.25
1009.18 1008.81 1008.41 1008.04 1007.75 1007.58 1007.56 1007.72 1008.07 1008.59 1009.25 1010.02 1010.83 1011.65 1012.42 1013.09 1013.66 1014.10 1014.41 1014.62 1014.75 1014.82 1014.86 1014.90 1014.94 1015.01 1015.10 1015.20 1015.32 1015.43 1015.52 1015.58 1015.61 1015.61 1015.55 1015.46 1015.34 1015.20 1015.03 1014.87 1014.71 1014.57 1014.45 1014.35
1008.79 1008.36 1007.95 1007.59 1007.33 1007.21 1007.24 1007.45 1007.84 1008.40 1009.09 1009.87 1010.71 1011.55 1012.34 1013.05 1013.66 1014.15 1014.54 1014.81 1015.00 1015.14 1015.23 1015.32 1015.40 1015.49 1015.59 1015.71 1015.82 1015.92 1016.01 1016.06 1016.07 1016.04 1015.96 1015.84 1015.68 1015.49 1015.30 1015.10 1014.92 1014.75 1014.62 1014.52
1008.31 1007.88 1007.50 1007.19 1007.00 1006.95 1007.07 1007.35 1007.79 1008.37 1009.07 1009.86 1010.68 1011.50 1012.28 1012.99 1013.61 1014.13 1014.55 1014.87 1015.12 1015.31 1015.45 1015.57 1015.69 1015.80 1015.91 1016.03 1016.13 1016.22 1016.29 1016.32 1016.32 1016.26 1016.16 1016.02 1015.84 1015.64 1015.43 1015.23 1015.05 1014.90 1014.78 1014.69
1007.87 1007.49 1007.18 1006.97 1006.89 1006.95 1007.16 1007.52 1008.02 1008.62 1009.32 1010.08 1010.85 1011.62 1012.35 1013.02 1013.61 1014.12 1014.54 1014.88 1015.16 1015.38 1015.56 1015.71 1015.84 1015.96 1016.07 1016.17 1016.26 1016.33 1016.37 1016.37 1016.34 1016.27 1016.15 1016.00 1015.82 1015.62 1015.42 1015.24 1015.08 1014.95 1014.85 1014.79
1007.63 1007.34 1007.15 1007.07 1007.12 1007.31 1007.63 1008.07 1008.62 1009.24 1009.91 1010.61 1011.31 1011.99 1012.63 1013.22 1013.74 1014.20 1014.59 1014.92 1015.20 1015.42 1015.61 1015.77 1015.90 1016.01 1016.10 1016.18 1016.23 1016.26 1016.26 1016.24 1016.17 1016.08 1015.95 1015.80 1015.63 1015.45 1015.27 1015.11 1014.98 1014.88 1014.81 1014.76
1007.71 1007.55 1007.49 1007.56 1007.75 1008.07 1008.49 1009.00 1009.58 1010.19 1010.82 1011.44 1012.04 1012.61 1013.13 1013.60 1014.03 1014.40 1014.74 1015.02 1015.27 1015.48 1015.65 1015.80 1015.91 1016.00 1016.06 1016.10 1016.11 1016.09 1016.05 1015.99 1015.90 1015.79 1015.65 1015.50 1015.34 1015.18 1015.03 1014.90 1014.79 1014.72 1014.66 1014.61
1008.18 1008.15 1008.23 1008.43 1008.75 1009.18 1009.68 1010.24 1010.82 1011.40 1011.96 1012.49 1012.97 1013.40 1013.78 1014.12 1014.43 1014.71 1014.96 1015.18 1015.38 1015.56 1015.71 1015.83 1015.91 1015.97 1016.00 1015.99 1015.96 1015.90 1015.82 1015.73 1015.61 1015.48 1015.34 1015.20 1015.05 1014.91 1014.78 1014.66 1014.57 1014.49 1014.43 1014.36
1009.02 1009.10 1009.30 1009.61 1010.02 1010.52 1011.07 1011.64 1012.20 1012.72 1013.19 1013.60 1013.95 1014.24 1014.48 1014.69 1014.87 1015.05 1015.21 1015.37 1015.53 1015.67 1015.79 1015.88 1015.94 1015.97 1015.97 1015.92 1015.86 1015.76 1015.65 1015.53 1015.40 1015.26 1015.12 1014.98 1014.84 1014.71 1014.58 1014.47 1014.37 1014.27 1014.18 1014.06
1010.16 1010.32 1010.59 1010.95 1011.41 1011.93 1012.48 1013.02 1013.52 1013.96 1014.33 1014.62 1014.84 1014.99 1015.11 1015.20 1015.28 1015.36 1015.46 1015.57 1015.68 1015.79 1015.90 1015.97 1016.02 1016.03 1016.01 1015.94 1015.85 1015.74 1015.61 1015.47 1015.32 1015.18 1015.04 1014.90 1014.77 1014.64 1014.51 1014.39 1014.26 1014.12 1013.96 1013.78
1011.46 1011.64 1011.93 1012.30 1012.74 1013.23 1013.73 1014.20 1014.62 1014.97 1015.23 1015.41 1015.51 1015.55 1015.56 1015.56 1015.57 1015.60 1015.65 1015.73 1015.84 1015.95 1016.05 1016.13 1016.18 1016.19 1016.16 1016.09 1015.98 1015.86 1015.72 1015.57 1015.42 1015.28 1015.14 1015.01 1014.87 1014.74 1014.59 1014.43 1014.26 1014.06 1013.84 1013.57
1012.75 1012.92 1013.17 1013.49 1013.87 1014.28 1014.70 1015.07 1015.39 1015.63 1015.79 1015.87 1015.88 1015.85 1015.80 1015.75 1015.72 1015.73 1015.78 1015.88 1015.99 1016.13 1016.25 1016.35 1016.42 1016.45 1016.43 1016.36 1016.26 1016.13 1015.99 1015.84 1015.70 1015.55 1015.41 1015.28 1015.14 1014.98 1014.81 1014.61 1014.38 1014.12 1013.81 1013.46
1013.90 1014.00 1014.17 1014.40 1014.68 1014.99 1015.29 1015.56 1015.77 1015.92 1015.99 1016.00 1015.95 1015.88 1015.81 1015.76 1015.75 1015.79 1015.88 1016.01 1016.18 1016.35 1016.52 1016.67 1016.77 1016.82 1016.82 1016.77 1016.67 1016.55 1016.40 1016.25 1016.10 1015.96 1015.81 1015.66 1015.51 1015.33 1015.12 1014.88 1014.60 1014.26 1013.88 1013.44
1014.80 1014.81 1014.87 1014.99 1015.16 1015.35 1015.53 1015.69 1015.81 1015.88 1015.89 1015.86 1015.80 1015.73 1015.68 1015.67 1015.71 1015.81 1015.97 1016.17 1016.41 1016.65 1016.88 1017.07 1017.21 1017.29 1017.31 1017.27 1017.18 1017.05 1016.90 1016.74 1016.58 1016.42 1016.26 1016.10 1015.92 1015.71 1015.47 1015.19 1014.85 1014.46 1014.01 1013.51
1015.40 1015.31 1015.27 1015.28 1015.33 1015.41 1015.49 1015.56 1015.61 1015.62 1015.60 1015.57 1015.52 1015.50 1015.50 1015.56 1015.68 1015.87 1016.11 1016.40 1016.70 1017.01 1017.30 1017.54 1017.71 1017.82 1017.85 1017.82 1017.72 1017.59 1017.42 1017.25 1017.07 1016.88 1016.70 1016.51 1016.31 1016.07 1015.80 1015.48 1015.10 1014.66 1014.16 1013.61
1015.72 1015.55 1015.42 1015.33 1015.29 1015.28 1015.29 1015.29 1015.29 1015.28 1015.27 1015.25 1015.25 1015.29 1015.37 1015.52 1015.73 1016.00 1016.33 1016.70 1017.08 1017.44 1017.77 1018.05 1018.25 1018.36 1018.40 1018.36 1018.25 1018.10 1017.91 1017.71 1017.50 1017.29 1017.08 1016.86 1016.62 1016.36 1016.06 1015.71 1015.30 1014.84 1014.31 1013.73
1015.81 1015.58 1015.39 1015.24 1015.14 1015.07 1015.03 1015.01 1015.00 1014.99 1015.00 1015.03 1015.10 1015.20 1015.37 1015.60 1015.90 1016.25 1016.65 1017.08 1017.50 1017.91 1018.26 1018.55 1018.76 1018.87 1018.90 1018.84 1018.71 1018.53 1018.32 1018.09 1017.85 1017.61 1017.36 1017.12 1016.86 1016.57 1016.25 1015.88 1015.46 1014.98 1014.44 1013.85
1015.75 1015.50 1015.28 1015.11 1014.99 1014.90 1014.85 1014.83 1014.83 1014.85 1014.91 1014.99 1015.12 1015.31 1015.55 1015.85 1016.21 1016.62 1017.06 1017.52 1017.96 1018.37 1018.73 1019.01 1019.20 1019.29 1019.30 1019.21 1019.06 1018.86 1018.62 1018.36 1018.10 1017.83 1017.56 1017.29 1017.01 1016.71 1016.37 1016.00 1015.57 1015.09 1014.55 1013.97
1015.64 1015.39 1015.19 1015.02 1014.91 1014.84 1014.81 1014.81 1014.85 1014.93 1015.04 1015.19 1015.38 1015.63 1015.92 1016.27 1016.66 1017.09 1017.54 1017.99 1018.42 1018.80 1019.12 1019.37 1019.52 1019.59 1019.56 1019.46 1019.28 1019.06 1018.81 1018.53 1018.25 1017.97 1017.69 1017.41 1017.11 1016.80 1016.46 1016.09 1015.66 1015.19 1014.67 1014.10
1015.56 1015.35 1015.18 1015.05 1014.97 1014.95 1014.96 1015.02 1015.11 1015.24 1015.41 1015.62 1015.87 1016.15 1016.48 1016.84 1017.24 1017.65 1018.06 1018.47 1018.84 1019.16 1019.42 1019.61 1019.71 1019.74 1019.68 1019.56 1019.37 1019.15 1018.89 1018.62 1018.34 1018.06 1017.78 1017.50 1017.21 1016.90 1016.56 1016.19 1015.78 1015.32 1014.81 1014.26
1015.57 1015.41 1015.30 1015.23 1015.21 1015.24 1015.31 1015.43 1015.59 1015.78 1016.01 1016.27 1016.55 1016.86 1017.20 1017.54 1017.90 1018.25 1018.60 1018.92 1019.20 1019.44 1019.62 1019.73 1019.77 1019.75 1019.67 1019.53 1019.35 1019.13 1018.90 1018.65 1018.40 1018.14 1017.88 1017.62 1017.34 1017.04 1016.71 1016.35 1015.94 1015.50 1015.00 1014.47
Thickness
5771 5775 5772 5768 5765 5762 5756 5757 5752 5757 5760 5765 5761 5759 5758 5761 5763 5764 5763 5762 5761 5760 5758 5756 5754 5752 5751 5749 5748 5746 5742 5738 5736 5733 5731 5727 5724 5721 5718 5714 5711 5708 5705 5702
5759 5766 5765 5760 5763 5762 5759 5759 5757 5758 5758 5760 5755 5754 5751 5753 5755 5755 5756 5756 5756 5754 5752 5749 5748 5746 5746 5744 5743 5740 5737 5735 5734 5731 5727 5724 5721 5718 5714 5711 5708 5705 5702 5699
5749 5759 5753 5745 5761 5761 5759 5763 5759 5752 5755 5752 5745 5739 5740 5743 5746 5746 5747 5748 5747 5746 5744 5743 5742 5741 5738 5737 5736 5732 5729 5728 5726 5724 5721 5719 5717 5713 5710 5706 5703 5700 5698 5696
5746 5740 5722 5756 5769 5765 5759 5760 5760 5753 5748 5744 5736 5730 5731 5733 5734 5733 5734 5735 5735 5735 5734 5734 5733 5732 5730 5728 5725 5722 5719 5717 5716 5714 5712 5710 5707 5705 5702 5700 5697 5694 5692 5691
5738 5731 5737 5752 5757 5756 5748 5748 5754 5747 5740 5736 5732 5728 5722 5722 5723 5722 5723 5723 5722 5723 5722 5720 5719 5718 5717 5715 5711 5709 5707 5704 5703 5702 5699 5697 5695 5693 5691 5689 5687 5686 5684 5682
5729 5720 5720 5743 5753 5755 5746 5736 5748 5743 5735 5733 5729 5722 5710 5710 5711 5709 5709 5710 5709 5708 5707 5704 5704 5703 5701 5699 5697 5695 5693 5691 5690 5688 5687 5685 5683 5682 5681 5678 5677 5676 5675 5673
5722 5719 5733 5744 5747 5744 5725 5728 5740 5739 5734 5730 5725 5720 5706 5703 5699 5697 5695 5696 5696 5694 5691 5688 5688 5686 5684 5683 5681 5680 5679 5677 5675 5674 5673 5672 5671 5669 5668 5667 5665 5663 5662 5661
5718 5712 5720 5737 5737 5732 5729 5734 5734 5732 5729 5722 5712 5704 5697 5692 5687 5685 5683 5682 5681 5679 5675 5673 5672 5671 5669 5666 5666 5665 5664 5662 5661 5660 5661 5660 5658 5657 5655 5653 5654 5652 5650 5649
5724 5722 5726 5734 5733 5731 5731 5727 5726 5724 5720 5711 5701 5693 5687 5681 5677 5674 5671 5669 5668 5664 5660 5659 5659 5658 5655 5652 5653 5652 5650 5649 5648 5648 5646 5646 5645 5645 5644 5642 5641 5640 5638 5636
5715 5722 5723 5724 5725 5723 5723 5721 5719 5716 5710 5702 5692 5684 5677 5672 5666 5662 5660 5658 5655 5652 5649 5647 5646 5645 5643 5643 5641 5640 5638 5637 5636 5635 5635 5633 5631 5632 5630 5627 5625 5622 5620 5619
5707 5712 5714 5713 5713 5713 5713 5712 5709 5704 5699 5691 5682 5674 5667 5662 5657 5654 5651 5648 5645 5641 5639 5638 5637 5635 5633 5631 5630 5628 5627 5626 5626 5626 5623 5618 5619 5615 5613 5609 5604 5598 5599 5597
5698 5699 5701 5699 5703 5705 5701 5698 5695 5689 5683 5678 5672 5663 5658 5652 5648 5644 5641 5638 5635 5633 5631 5629 5627 5625 5622 5620 5618 5616 5616 5615 5615 5614 5611 5609 5606 5605 5600 5594 5588 5582 5577 5572
5688 5692 5692 5691 5693 5693 5689 5685 5681 5675 5669 5663 5657 5652 5646 5640 5636 5633 5630 5628 5625 5624 5622 5620 5617 5615 5612 5609 5606 5604 5602 5601 5601 5600 5597 5595 5592 5589 5586 5583 5576 5570 5564 5557
5680 5681 5678 5678 5677 5677 5674 5671 5666 5659 5653 5648 5643 5638 5633 5629 5625 5622 5620 5618 5616 5614 5611 5609 5607 5604 5601 5597 5594 5591 5590 5589 5585 5584 5582 5580 5576 5573 5569 5566 5562 5559 5552 5543
5669 5671 5668 5665 5663 5660 5658 5654 5647 5641 5635 5631 5627 5624 5620 5616 5613 5610 5609 5607 5605 5603 5601 5599 5595 5591 5588 5585 5582 5579 5577 5576 5570 5568 5566 5564 5560 5555 5551 5546 5541 5537 5532 5527
5657 5657 5654 5650 5647 5644 5640 5636 5630 5624 5620 5615 5612 5609 5607 5605 5602 5600 5598 5596 5593 5591 5589 5586 5582 5579 5575 5571 5568 5566 5563 5555 5550 5549 5549 5546 5541 5535 5530 5525 5520 5515 5510 5506
5643 5640 5637 5634 5631 5628 5624 5621 5616 5611 5607 5603 5599 5596 5594 5592 5590 5588 5586 5585 5582 5579 5576 5573 5569 5565 5560 5556 5552 5552 5549 5544 5535 5534 5531 5525 5519 5514 5509 5504 5500 5494 5490 5485
5633 5629 5625 5622 5617 5612 5608 5605 5602 5597 5594 5591 5588 5586 5583 5580 5578 5576 5575 5573 5571 5568 5564 5559 5553 5549 5544 5539 5535 5533 5530 5527 5521 5517 5511 5505 5498 5495 5490 5485 5480 5476 5474 5470
5617 5614 5611 5607 5605 5601 5597 5594 5591 5589 5586 5583 5579 5576 5574 5572 5570 5567 5565 5562 5559 5555 5549 5542 5532 5533 5529 5522 5515 5516 5513 5509 5504 5498 5492 5485 5482 5478 5473 5468 5464 5461 5458 5456
5602 5599 5597 5594 5592 5590 5587 5585 5583 5580 5577 5574 5571 5568 5566 5564 5561 5557 5553 5549 5545 5539 5532 5525 5522 5518 5511 5505 5498 5500 5495 5491 5486 5481 5475 5471 5466 5462 5457 5453 5450 5448 5446 5444
5588 5587 5584 5582 5580 5579 5577 5575 5572 5570 5567 5565 5562 5559 5556 5553 5550 5546 5541 5538 5527 5520 5515 5507 5506 5499 5494 5487 5484 5485 5480 5474 5469 5464 5459 5455 5451 5447 5443 5440 5438 5436 5434 5433
5577 5575 5573 5572 5570 5568 5566 5565 5562 5559 5557 5554 5551 5549 5545 5540 5537 5532 5525 5519 5511 5500 5500 5496 5489 5478 5474 5472 5474 5470 5464 5459 5454 5450 5446 5442 5439 5435 5433 5430 5428 5426 5425 5424
5564 5563 5562 5560 5558 5557 5556 5554 5552 5548 5545 5541 5539 5535 5532 5527 5524 5520 5513 5503 5497 5486 5485 5476 5466 5461 5458 5463 5460 5455 5451 5446 5442 5438 5435 5431 5428 5426 5423 5422 5420 5419 5419 5419
5551 5551 5550 5549 5548 5546 5544 5542 5539 5536 5532 5529 5526 5522 5517 5514 5509 5502 5494 5481 5475 5471 5468 5456 5451 5449 5449 5451 5448 5444 5439 5434 5431 5428 5425 5422 5420 5418 5416 5415 5414 5414 5414 5414
5540 5539 5539 5537 5536 5536 5532 5530 5527 5523 5520 5517 5513 5508 5504 5499 5493 5486 5478 5469 5460 5458 5455 5446 5441 5440 5442 5440 5436 5432 5428 5423 5421 5419 5418 5415 5414 5412 5411 5410 5410 5410 5411 5411
5529 5529 5527 5524 5522 5520 5520 5518 5515 5511 5508 5503 5498 5493 5488 5483 5476 5470 5464 5458 5452 5446 5444 5441 5437 5435 5433 5430 5426 5422 5419 5417 5415 5413 5411 5410 5409 5408 5407 5407 5407 5408 5408 5409
5520 5519 5516 5515 5513 5510 5508 5505 5502 5498 5494 5490 5485 5480 5475 5470 5464 5459 5454 5449 5444 5440 5435 5432 5430 5427 5424 5421 5418 5415 5413 5410 5408 5407 5406 5404 5403 5403 5403 5404 5404 5405 5406 5408